| time (UTC) | temp F | wind direction | speed MPH | gust MPH | rain 1hr in | rain 24hr in | rain mn in | humidity % | barometer mb |
| 20260831065004 | 81 | 169 | 5.0 | 10.0 | 0.00 | 0.00 | 0.00 | 79 | 1016.5 |
| 20260831064524 | 81 | 172 | 5.0 | 10.0 | 0.00 | 0.00 | 0.00 | 79 | 1016.7 |
| 20260831064004 | 82 | 165 | 4.0 | 10.0 | 0.00 | 0.00 | 0.00 | 78 | 1016.7 |
| 20260831063504 | 82 | 162 | 4.0 | 7.0 | 0.00 | 0.00 | 0.00 | 77 | 1016.6 |
| 20260831063004 | 82 | 164 | 4.0 | 7.0 | 0.00 | 0.00 | 0.00 | 77 | 1016.7 |
| 20260831062504 | 82 | 156 | 4.0 | 7.0 | 0.00 | 0.00 | 0.00 | 76 | 1016.7 |
| 20260831062025 | 82 | 156 | 4.0 | 7.0 | 0.00 | 0.00 | 0.00 | 76 | 1016.6 |
| 20260831061504 | 82 | 159 | 5.0 | 11.0 | 0.00 | 0.00 | 0.00 | 76 | 1016.5 |
| 20260831061003 | 82 | 160 | 7.0 | 14.0 | 0.00 | 0.00 | 0.00 | 76 | 1016.4 |
| 20260831060504 | 82 | 162 | 6.0 | 14.0 | 0.00 | 0.00 | 0.00 | 76 | 1016.4 |
| 20260831060003 | 83 | 166 | 6.0 | 11.0 | 0.00 | 0.00 | 0.00 | 75 | 1016.4 |
| 20260831055504 | 83 | 165 | 6.0 | 12.0 | 0.00 | 0.00 | 0.00 | 74 | 1016.4 |
| 20260831055004 | 83 | 158 | 6.0 | 12.0 | 0.00 | 0.00 | 0.00 | 74 | 1016.4 |
| 20260831054503 | 83 | 156 | 6.0 | 13.0 | 0.00 | 0.00 | 0.00 | 74 | 1016.2 |
| 20260831054025 | 83 | 161 | 6.0 | 13.0 | 0.00 | 0.00 | 0.00 | 74 | 1016.2 |
| 20260831053503 | 84 | 162 | 6.0 | 12.0 | 0.00 | 0.00 | 0.00 | 74 | 1016.2 |
| 20260831053003 | 84 | 164 | 5.0 | 10.0 | 0.00 | 0.00 | 0.00 | 73 | 1016.2 |
| 20260831052503 | 84 | 167 | 5.0 | 8.0 | 0.00 | 0.00 | 0.00 | 73 | 1016.1 |
| 20260831052004 | 84 | 165 | 4.0 | 10.0 | 0.00 | 0.00 | 0.00 | 73 | 1016.1 |
| 20260831051503 | 84 | 158 | 4.0 | 10.0 | 0.00 | 0.00 | 0.00 | 72 | 1016.0 |
| 20260831051003 | 84 | 156 | 5.0 | 10.0 | 0.00 | 0.00 | 0.00 | 72 | 1016.0 |
| 20260831050503 | 85 | 156 | 5.0 | 11.0 | 0.00 | 0.00 | 0.00 | 72 | 1016.0 |
| 20260831050004 | 85 | 147 | 6.0 | 12.0 | 0.00 | 0.00 | 0.00 | 72 | 1016.1 |
| 20260831045524 | 85 | 149 | 6.0 | 12.0 | 0.00 | 0.00 | 0.00 | 72 | 1016.0 |
| 20260831045004 | 85 | 157 | 7.0 | 12.0 | 0.00 | 0.00 | 0.00 | 71 | 1016.0 |
| 20260831044503 | 85 | 160 | 7.0 | 18.0 | 0.00 | 0.00 | 0.00 | 71 | 1016.0 |
| 20260831044003 | 85 | 159 | 6.0 | 18.0 | 0.00 | 0.00 | 0.00 | 71 | 1016.0 |
| 20260831043525 | 86 | 156 | 6.0 | 18.0 | 0.00 | 0.00 | 0.00 | 70 | 1016.0 |
| 20260831043003 | 86 | 154 | 6.0 | 13.0 | 0.00 | 0.00 | 0.00 | 70 | 1016.0 |
| 20260831042503 | 86 | 156 | 6.0 | 13.0 | 0.00 | 0.00 | 0.00 | 69 | 1016.0 |
| 20260831042004 | 86 | 162 | 5.0 | 12.0 | 0.00 | 0.00 | 0.00 | 68 | 1016.0 |
| 20260831041524 | 86 | 156 | 4.0 | 8.0 | 0.00 | 0.00 | 0.00 | 67 | 1016.0 |
| 20260831041003 | 86 | 148 | 4.0 | 6.0 | 0.00 | 0.00 | 0.00 | 66 | 1016.0 |
| 20260831040503 | 86 | 158 | 4.0 | 8.0 | 0.00 | 0.00 | 0.00 | 65 | 1015.9 |
| 20260831040003 | 86 | 154 | 5.0 | 8.0 | 0.00 | 0.00 | 0.00 | 65 | 1015.9 |
| 20260831035503 | 87 | 144 | 5.0 | 10.0 | 0.00 | 0.00 | 0.00 | 64 | 1015.8 |
| 20260831035003 | 87 | 141 | 5.0 | 10.0 | 0.00 | 0.00 | 0.00 | 64 | 1015.8 |
| 20260831034503 | 87 | 143 | 6.0 | 13.0 | 0.00 | 0.00 | 0.00 | 64 | 1015.8 |
| 20260831034003 | 87 | 141 | 6.0 | 13.0 | 0.00 | 0.00 | 0.00 | 63 | 1015.7 |
| 20260831033503 | 87 | 141 | 5.0 | 12.0 | 0.00 | 0.00 | 0.00 | 63 | 1015.7 |
| 20260831033024 | 87 | 145 | 5.0 | 12.0 | 0.00 | 0.00 | 0.00 | 62 | 1015.6 |
| 20260831032504 | 88 | 139 | 6.0 | 14.0 | 0.00 | 0.00 | 0.00 | 62 | 1015.5 |
| 20260831032003 | 88 | 135 | 6.0 | 14.0 | 0.00 | 0.00 | 0.00 | 62 | 1015.4 |
| 20260831031503 | 88 | 136 | 6.0 | 13.0 | 0.00 | 0.00 | 0.00 | 61 | 1015.4 |
| 20260831031003 | 88 | 132 | 6.0 | 14.0 | 0.00 | 0.00 | 0.00 | 61 | 1015.3 |
| 20260831030503 | 88 | 126 | 6.0 | 14.0 | 0.00 | 0.00 | 0.00 | 60 | 1015.3 |
| 20260831030004 | 88 | 127 | 6.0 | 13.0 | 0.00 | 0.00 | 0.00 | 60 | 1015.1 |
| 20260831025524 | 88 | 130 | 7.0 | 13.0 | 0.00 | 0.00 | 0.00 | 59 | 1015.0 |
| 20260831025024 | 89 | 132 | 6.0 | 13.0 | 0.00 | 0.00 | 0.00 | 59 | 1015.0 |
| 20260831024524 | 89 | 124 | 6.0 | 13.0 | 0.00 | 0.00 | 0.00 | 59 | 1014.9 |
| 20260831024024 | 89 | 120 | 6.0 | 13.0 | 0.00 | 0.00 | 0.00 | 59 | 1014.8 |
| 20260831023504 | 89 | 128 | 6.0 | 12.0 | 0.00 | 0.00 | 0.00 | 58 | 1014.6 |
| 20260831023024 | 89 | 132 | 6.0 | 12.0 | 0.00 | 0.00 | 0.00 | 58 | 1014.6 |
| 20260831022503 | 90 | 130 | 7.0 | 13.0 | 0.00 | 0.00 | 0.00 | 57 | 1014.7 |
| 20260831022003 | 90 | 127 | 7.0 | 14.0 | 0.00 | 0.00 | 0.00 | 57 | 1014.3 |
| 20260831021503 | 90 | 125 | 7.0 | 17.0 | 0.00 | 0.00 | 0.00 | 56 | 1014.3 |
| 20260831021003 | 90 | 124 | 7.0 | 17.0 | 0.00 | 0.00 | 0.00 | 55 | 1014.2 |
| 20260831020503 | 91 | 125 | 7.0 | 17.0 | 0.00 | 0.00 | 0.00 | 54 | 1014.2 |
| 20260831020003 | 91 | 125 | 8.0 | 18.0 | 0.00 | 0.00 | 0.00 | 54 | 1014.2 |
| 20260831015503 | 91 | 126 | 7.0 | 18.0 | 0.00 | 0.00 | 0.00 | 53 | 1014.0 |
| 20260831015003 | 91 | 124 | 6.0 | 16.0 | 0.00 | 0.00 | 0.00 | 53 | 1014.1 |
| 20260831014503 | 91 | 133 | 5.0 | 10.0 | 0.00 | 0.00 | 0.00 | 53 | 1014.0 |
| 20260831014003 | 91 | 144 | 6.0 | 11.0 | 0.00 | 0.00 | 0.00 | 52 | 1013.9 |
| 20260831013524 | 91 | 146 | 5.0 | 11.0 | 0.00 | 0.00 | 0.00 | 51 | 1013.8 |
| 20260831013003 | 91 | 134 | 6.0 | 12.0 | 0.00 | 0.00 | 0.00 | 50 | 1013.7 |
| 20260831012503 | 92 | 121 | 6.0 | 18.0 | 0.00 | 0.00 | 0.00 | 49 | 1013.8 |
| 20260831012003 | 92 | 120 | 4.0 | 18.0 | 0.00 | 0.00 | 0.00 | 48 | 1013.5 |
| 20260831011503 | 93 | 125 | 1.0 | 4.0 | 0.00 | 0.00 | 0.00 | 47 | 1013.4 |
| 20260831011024 | 93 | 125 | 1.0 | 2.0 | 0.00 | 0.00 | 0.00 | 47 | 1013.3 |
| 20260831010503 | 94 | 126 | 2.0 | 6.0 | 0.00 | 0.00 | 0.00 | 46 | 1013.4 |
| 20260831010003 | 94 | 128 | 2.0 | 6.0 | 0.00 | 0.00 | 0.00 | 45 | 1013.4 |
| 20260831005503 | 94 | 130 | 2.0 | 4.0 | 0.00 | 0.00 | 0.00 | 44 | 1013.4 |
| 20260831005024 | 95 | 130 | 2.0 | 4.0 | 0.00 | 0.00 | 0.00 | 44 | 1013.4 |
| 20260831004503 | 95 | 130 | 4.0 | 8.0 | 0.00 | 0.00 | 0.00 | 44 | 1013.4 |
| 20260831004003 | 95 | 137 | 4.0 | 8.0 | 0.00 | 0.00 | 0.00 | 43 | 1013.4 |
| 20260831003503 | 95 | 143 | 4.0 | 7.0 | 0.00 | 0.00 | 0.00 | 42 | 1013.3 |
| 20260831003003 | 96 | 144 | 5.0 | 8.0 | 0.00 | 0.00 | 0.00 | 42 | 1013.1 |
| 20260831002524 | 96 | 154 | 5.0 | 8.0 | 0.00 | 0.00 | 0.00 | 42 | 1013.2 |
| 20260831002003 | 96 | 154 | 5.0 | 11.0 | 0.00 | 0.00 | 0.00 | 41 | 1013.1 |
| 20260831001503 | 96 | 142 | 5.0 | 11.0 | 0.00 | 0.00 | 0.00 | 41 | 1013.2 |
| 20260831001003 | 97 | 132 | 6.0 | 13.0 | 0.00 | 0.00 | 0.00 | 41 | 1013.1 |
| 20260831000503 | 97 | 129 | 6.0 | 13.0 | 0.00 | 0.00 | 0.00 | 40 | 1013.2 |
| 20260831000004 | 97 | 129 | 6.0 | 13.0 | 0.00 | 0.00 | 0.00 | 40 | 1013.1 |
| 20260830235504 | 98 | 129 | 6.0 | 13.0 | 0.00 | 0.00 | 0.00 | 40 | 1013.1 |
| 20260830235004 | 98 | 118 | 5.0 | 11.0 | 0.00 | 0.00 | 0.00 | 41 | 1013.1 |
| 20260830234525 | 98 | 120 | 5.0 | 11.0 | 0.00 | 0.00 | 0.00 | 40 | 1013.2 |
| 20260830234004 | 98 | 124 | 6.0 | 12.0 | 0.00 | 0.00 | 0.00 | 40 | 1013.3 |
| 20260830233504 | 98 | 120 | 7.0 | 13.0 | 0.00 | 0.00 | 0.00 | 40 | 1013.2 |
| 20260830233025 | 98 | 122 | 7.0 | 14.0 | 0.00 | 0.00 | 0.00 | 39 | 1013.2 |
| 20260830232525 | 98 | 131 | 6.0 | 14.0 | 0.00 | 0.00 | 0.00 | 38 | 1013.2 |
| 20260830232004 | 98 | 141 | 6.0 | 13.0 | 0.00 | 0.00 | 0.00 | 39 | 1013.3 |
| 20260830231525 | 99 | 151 | 6.0 | 13.0 | 0.00 | 0.00 | 0.00 | 38 | 1013.2 |
| 20260830231004 | 99 | 168 | 7.0 | 13.0 | 0.00 | 0.00 | 0.00 | 39 | 1013.2 |
| 20260830230504 | 99 | 155 | 7.0 | 13.0 | 0.00 | 0.00 | 0.00 | 38 | 1013.3 |
| 20260830230004 | 100 | 137 | 6.0 | 11.0 | 0.00 | 0.00 | 0.00 | 38 | 1013.3 |
| 20260830225525 | 100 | 136 | 6.0 | 12.0 | 0.00 | 0.00 | 0.00 | 38 | 1013.3 |
| 20260830225004 | 100 | 136 | 6.0 | 12.0 | 0.00 | 0.00 | 0.00 | 37 | 1013.4 |
| 20260830224504 | 100 | 137 | 5.0 | 12.0 | 0.00 | 0.00 | 0.00 | 37 | 1013.4 |
| 20260830224025 | 101 | 151 | 5.0 | 11.0 | 0.00 | 0.00 | 0.00 | 38 | 1013.4 |
| 20260830223504 | 101 | 164 | 4.0 | 10.0 | 0.00 | 0.00 | 0.00 | 36 | 1013.4 |
| 20260830223004 | 101 | 166 | 4.0 | 10.0 | 0.00 | 0.00 | 0.00 | 37 | 1013.4 |
| 20260830222504 | 102 | 166 | 6.0 | 13.0 | 0.00 | 0.00 | 0.00 | 36 | 1013.5 |
| 20260830222004 | 102 | 152 | 6.0 | 13.0 | 0.00 | 0.00 | 0.00 | 36 | 1013.5 |
| 20260830221504 | 102 | 135 | 4.0 | 12.0 | 0.00 | 0.00 | 0.00 | 35 | 1013.4 |
| 20260830221025 | 102 | 126 | 5.0 | 14.0 | 0.00 | 0.00 | 0.00 | 35 | 1013.5 |
| 20260830220504 | 102 | 123 | 6.0 | 14.0 | 0.00 | 0.00 | 0.00 | 37 | 1013.6 |
| 20260830220004 | 102 | 146 | 5.0 | 13.0 | 0.00 | 0.00 | 0.00 | 36 | 1013.6 |
| 20260830215504 | 102 | 150 | 5.0 | 11.0 | 0.00 | 0.00 | 0.00 | 37 | 1013.7 |
| 20260830215004 | 102 | 119 | 6.0 | 14.0 | 0.00 | 0.00 | 0.00 | 38 | 1013.7 |
| 20260830214504 | 101 | 132 | 7.0 | 16.0 | 0.00 | 0.00 | 0.00 | 38 | 1013.7 |
| 20260830214004 | 101 | 150 | 7.0 | 16.0 | 0.00 | 0.00 | 0.00 | 38 | 1013.9 |
| 20260830213504 | 101 | 166 | 7.0 | 16.0 | 0.00 | 0.00 | 0.00 | 38 | 1013.9 |
| 20260830213004 | 101 | 172 | 8.0 | 16.0 | 0.00 | 0.00 | 0.00 | 38 | 1013.9 |
| 20260830212504 | 101 | 164 | 7.0 | 16.0 | 0.00 | 0.00 | 0.00 | 38 | 1014.0 |
| 20260830212004 | 100 | 162 | 6.0 | 16.0 | 0.00 | 0.00 | 0.00 | 39 | 1014.1 |
| 20260830211504 | 100 | 165 | 6.0 | 14.0 | 0.00 | 0.00 | 0.00 | 39 | 1014.2 |
| 20260830211004 | 99 | 152 | 6.0 | 13.0 | 0.00 | 0.00 | 0.00 | 39 | 1014.2 |
| 20260830210525 | 99 | 153 | 6.0 | 13.0 | 0.00 | 0.00 | 0.00 | 41 | 1014.4 |
| 20260830210004 | 100 | 165 | 7.0 | 16.0 | 0.00 | 0.00 | 0.00 | 39 | 1014.4 |
| 20260830205504 | 100 | 172 | 8.0 | 16.0 | 0.00 | 0.00 | 0.00 | 39 | 1014.6 |
| 20260830205025 | 100 | 166 | 8.0 | 19.0 | 0.00 | 0.00 | 0.00 | 37 | 1014.6 |
| 20260830204504 | 101 | 160 | 7.0 | 19.0 | 0.00 | 0.00 | 0.00 | 38 | 1014.7 |
| 20260830204004 | 101 | 139 | 6.0 | 14.0 | 0.00 | 0.00 | 0.00 | 39 | 1014.8 |
| 20260830203504 | 101 | 141 | 7.0 | 14.0 | 0.00 | 0.00 | 0.00 | 40 | 1015.0 |
| 20260830203004 | 100 | 154 | 7.0 | 14.0 | 0.00 | 0.00 | 0.00 | 40 | 1015.2 |
| 20260830202504 | 100 | 142 | 7.0 | 14.0 | 0.00 | 0.00 | 0.00 | 41 | 1015.2 |
| 20260830202025 | 99 | 147 | 7.0 | 14.0 | 0.00 | 0.00 | 0.00 | 40 | 1015.2 |
| 20260830201504 | 99 | 146 | 6.0 | 13.0 | 0.00 | 0.00 | 0.00 | 43 | 1015.2 |
| 20260830201025 | 99 | 139 | 6.0 | 12.0 | 0.00 | 0.00 | 0.00 | 44 | 1015.3 |
| 20260830200504 | 99 | 165 | 7.0 | 14.0 | 0.00 | 0.00 | 0.00 | 42 | 1015.3 |
| 20260830200025 | 100 | 155 | 8.0 | 16.0 | 0.00 | 0.00 | 0.00 | 43 | 1015.3 |
| 20260830195504 | 99 | 147 | 7.0 | 16.0 | 0.00 | 0.00 | 0.00 | 43 | 1015.5 |
| 20260830195004 | 100 | 149 | 6.0 | 13.0 | 0.00 | 0.00 | 0.00 | 43 | 1015.5 |
| 20260830194504 | 100 | 145 | 6.0 | 13.0 | 0.00 | 0.00 | 0.00 | 43 | 1015.7 |
| 20260830194003 | 101 | 153 | 6.0 | 14.0 | 0.00 | 0.00 | 0.00 | 42 | 1015.8 |
| 20260830193504 | 100 | 152 | 6.0 | 16.0 | 0.00 | 0.00 | 0.00 | 42 | 1015.9 |
| 20260830193004 | 100 | 159 | 7.0 | 16.0 | 0.00 | 0.00 | 0.00 | 43 | 1015.8 |
| 20260830192504 | 100 | 161 | 6.0 | 14.0 | 0.00 | 0.00 | 0.00 | 43 | 1016.0 |
| 20260830192004 | 100 | 172 | 6.0 | 14.0 | 0.00 | 0.00 | 0.00 | 44 | 1016.2 |
| 20260830191525 | 99 | 184 | 7.0 | 13.0 | 0.00 | 0.00 | 0.00 | 46 | 1016.2 |
| 20260830191004 | 99 | 172 | 6.0 | 14.0 | 0.00 | 0.00 | 0.00 | 46 | 1016.2 |
| 20260830190504 | 99 | 147 | 5.0 | 14.0 | 0.00 | 0.00 | 0.00 | 46 | 1016.3 |
| 20260830190025 | 99 | 139 | 6.0 | 12.0 | 0.00 | 0.00 | 0.00 | 46 | 1016.5 |
| 20260830185504 | 98 | 141 | 6.0 | 14.0 | 0.00 | 0.00 | 0.00 | 45 | 1016.5 |
| 20260830185004 | 99 | 143 | 6.0 | 14.0 | 0.00 | 0.00 | 0.00 | 45 | 1016.5 |
| 20260830184504 | 99 | 165 | 7.0 | 13.0 | 0.00 | 0.00 | 0.00 | 47 | 1016.5 |
| 20260830184004 | 99 | 174 | 6.0 | 13.0 | 0.00 | 0.00 | 0.00 | 46 | 1016.6 |
| 20260830183503 | 98 | 164 | 6.0 | 12.0 | 0.00 | 0.00 | 0.00 | 46 | 1016.7 |
| 20260830183024 | 98 | 138 | 7.0 | 18.0 | 0.00 | 0.00 | 0.00 | 47 | 1017.0 |
| 20260830182525 | 98 | 127 | 6.0 | 18.0 | 0.00 | 0.00 | 0.00 | 48 | 1017.0 |
| 20260830182024 | 97 | 168 | 7.0 | 17.0 | 0.00 | 0.00 | 0.00 | 49 | 1017.0 |
| 20260830181525 | 97 | 165 | 6.0 | 17.0 | 0.00 | 0.00 | 0.00 | 50 | 1017.0 |
| 20260830181024 | 96 | 124 | 6.0 | 14.0 | 0.00 | 0.00 | 0.00 | 50 | 1017.1 |
| 20260830180504 | 96 | 141 | 7.0 | 18.0 | 0.00 | 0.00 | 0.00 | 50 | 1017.3 |
| 20260830180004 | 95 | 143 | 7.0 | 18.0 | 0.00 | 0.00 | 0.00 | 52 | 1017.4 |
| 20260830175504 | 94 | 164 | 6.0 | 13.0 | 0.00 | 0.00 | 0.00 | 54 | 1017.4 |
| 20260830175004 | 94 | 188 | 7.0 | 17.0 | 0.00 | 0.00 | 0.00 | 54 | 1017.5 |
| 20260830174503 | 94 | 185 | 8.0 | 17.0 | 0.00 | 0.00 | 0.00 | 55 | 1017.7 |
| 20260830174003 | 94 | 178 | 8.0 | 16.0 | 0.00 | 0.00 | 0.00 | 54 | 1017.9 |
| 20260830173524 | 94 | 162 | 6.0 | 16.0 | 0.00 | 0.00 | 0.00 | 55 | 1017.9 |
| 20260830173004 | 93 | 152 | 5.0 | 13.0 | 0.00 | 0.00 | 0.00 | 55 | 1018.0 |
| 20260830172504 | 93 | 168 | 6.0 | 13.0 | 0.00 | 0.00 | 0.00 | 55 | 1018.1 |
| 20260830172003 | 93 | 157 | 7.0 | 14.0 | 0.00 | 0.00 | 0.00 | 58 | 1018.0 |
| 20260830171503 | 93 | 148 | 6.0 | 14.0 | 0.00 | 0.00 | 0.00 | 56 | 1018.1 |
| 20260830171003 | 92 | 165 | 4.0 | 13.0 | 0.00 | 0.00 | 0.00 | 58 | 1018.0 |
| 20260830170503 | 92 | 173 | 6.0 | 14.0 | 0.00 | 0.00 | 0.00 | 58 | 1018.1 |
| 20260830170004 | 92 | 158 | 7.0 | 16.0 | 0.00 | 0.00 | 0.00 | 57 | 1018.2 |
| 20260830165503 | 92 | 136 | 7.0 | 16.0 | 0.00 | 0.00 | 0.00 | 57 | 1018.1 |
| 20260830165003 | 91 | 133 | 6.0 | 14.0 | 0.00 | 0.00 | 0.00 | 60 | 1018.1 |
| 20260830164504 | 90 | 145 | 4.0 | 14.0 | 0.00 | 0.00 | 0.00 | 63 | 1018.2 |
| 20260830164003 | 89 | 159 | 5.0 | 13.0 | 0.00 | 0.00 | 0.00 | 64 | 1018.2 |
| 20260830163504 | 89 | 164 | 6.0 | 13.0 | 0.00 | 0.00 | 0.00 | 64 | 1018.2 |
| 20260830163024 | 89 | 167 | 5.0 | 12.0 | 0.00 | 0.00 | 0.00 | 66 | 1018.3 |
| 20260830162503 | 89 | 172 | 6.0 | 12.0 | 0.00 | 0.00 | 0.00 | 64 | 1018.4 |
| 20260830162003 | 89 | 178 | 6.0 | 14.0 | 0.00 | 0.00 | 0.00 | 64 | 1018.4 |
| 20260830161503 | 88 | 172 | 6.0 | 14.0 | 0.00 | 0.00 | 0.00 | 64 | 1018.4 |
| 20260830161004 | 88 | 146 | 7.0 | 13.0 | 0.00 | 0.00 | 0.00 | 66 | 1018.2 |
| 20260830160504 | 88 | 140 | 7.0 | 16.0 | 0.00 | 0.00 | 0.00 | 67 | 1018.4 |
| 20260830160024 | 87 | 149 | 7.0 | 16.0 | 0.00 | 0.00 | 0.00 | 67 | 1018.3 |
| 20260830155503 | 87 | 163 | 5.0 | 13.0 | 0.00 | 0.00 | 0.00 | 68 | 1018.3 |
| 20260830155003 | 86 | 178 | 5.0 | 11.0 | 0.00 | 0.00 | 0.00 | 70 | 1018.2 |
| 20260830154504 | 86 | 170 | 5.0 | 10.0 | 0.00 | 0.00 | 0.00 | 72 | 1018.2 |
| 20260830154003 | 85 | 168 | 5.0 | 11.0 | 0.00 | 0.00 | 0.00 | 74 | 1018.2 |
| 20260830153503 | 85 | 171 | 6.0 | 13.0 | 0.00 | 0.00 | 0.00 | 74 | 1018.2 |
| 20260830153004 | 84 | 179 | 6.0 | 13.0 | 0.00 | 0.00 | 0.00 | 74 | 1018.2 |
| 20260830152503 | 84 | 187 | 5.0 | 12.0 | 0.00 | 0.00 | 0.00 | 75 | 1018.1 |
| 20260830152004 | 84 | 196 | 5.0 | 10.0 | 0.00 | 0.00 | 0.00 | 77 | 1018.1 |
| 20260830151503 | 83 | 194 | 5.0 | 10.0 | 0.00 | 0.00 | 0.00 | 78 | 1018.0 |
| 20260830151003 | 83 | 183 | 5.0 | 11.0 | 0.00 | 0.00 | 0.00 | 80 | 1018.1 |
| 20260830150503 | 82 | 178 | 6.0 | 11.0 | 0.00 | 0.00 | 0.00 | 80 | 1018.0 |
| 20260830150004 | 82 | 181 | 6.0 | 11.0 | 0.00 | 0.00 | 0.00 | 80 | 1018.1 |
| 20260830145503 | 82 | 188 | 6.0 | 11.0 | 0.00 | 0.00 | 0.00 | 82 | 1018.1 |
| 20260830145003 | 82 | 198 | 6.0 | 14.0 | 0.00 | 0.00 | 0.00 | 82 | 1018.1 |
| 20260830144503 | 81 | 203 | 6.0 | 14.0 | 0.00 | 0.00 | 0.00 | 83 | 1018.2 |
| 20260830144003 | 81 | 201 | 6.0 | 13.0 | 0.00 | 0.00 | 0.00 | 83 | 1018.3 |
| 20260830143503 | 81 | 200 | 6.0 | 13.0 | 0.00 | 0.00 | 0.00 | 85 | 1018.2 |
| 20260830143003 | 80 | 189 | 5.0 | 12.0 | 0.00 | 0.00 | 0.00 | 87 | 1018.2 |
| 20260830142503 | 80 | 180 | 5.0 | 12.0 | 0.00 | 0.00 | 0.00 | 89 | 1018.3 |
| 20260830142024 | 79 | 179 | 5.0 | 12.0 | 0.00 | 0.00 | 0.00 | 90 | 1018.3 |
| 20260830141503 | 79 | 160 | 7.0 | 12.0 | 0.00 | 0.00 | 0.00 | 91 | 1018.2 |
| 20260830141003 | 78 | 152 | 6.0 | 12.0 | 0.00 | 0.00 | 0.00 | 92 | 1018.3 |
| 20260830140503 | 78 | 162 | 5.0 | 8.0 | 0.00 | 0.00 | 0.00 | 92 | 1018.2 |
| 20260830140024 | 78 | 160 | 5.0 | 7.0 | 0.00 | 0.00 | 0.00 | 93 | 1018.1 |
| 20260830135524 | 77 | 166 | 4.0 | 8.0 | 0.00 | 0.00 | 0.00 | 93 | 1018.1 |
| 20260830135003 | 77 | 179 | 4.0 | 8.0 | 0.00 | 0.00 | 0.00 | 93 | 1018.0 |
| 20260830134503 | 76 | 173 | 4.0 | 7.0 | 0.00 | 0.00 | 0.00 | 93 | 1017.9 |
| 20260830134003 | 76 | 163 | 4.0 | 7.0 | 0.00 | 0.00 | 0.00 | 93 | 1018.0 |
| 20260830133503 | 75 | 170 | 4.0 | 8.0 | 0.00 | 0.00 | 0.00 | 93 | 1017.9 |
| 20260830133024 | 75 | 175 | 4.0 | 8.0 | 0.00 | 0.00 | 0.00 | 93 | 1017.9 |
| 20260830132503 | 74 | 180 | 1.0 | 5.0 | 0.00 | 0.00 | 0.00 | 92 | 1017.8 |
| 20260830132003 | 73 | 180 | 1.0 | 4.0 | 0.00 | 0.00 | 0.00 | 91 | 1017.8 |
| 20260830131503 | 73 | 180 | 1.0 | 4.0 | 0.00 | 0.00 | 0.00 | 91 | 1017.8 |
| 20260830131003 | 72 | 180 | 1.0 | 2.0 | 0.00 | 0.00 | 0.00 | 90 | 1017.7 |
| 20260830130503 | 72 | 180 | 0.0 | 2.0 | 0.00 | 0.00 | 0.00 | 90 | 1017.7 |
| 20260830130024 | 72 | 180 | 0.0 | 1.0 | 0.00 | 0.00 | 0.00 | 90 | 1017.6 |
| 20260830125503 | 72 | 180 | 0.0 | 1.0 | 0.00 | 0.00 | 0.00 | 89 | 1017.6 |
| 20260830125003 | 72 | 0 | 0.0 | 0.0 | 0.00 | 0.00 | 0.00 | 89 | 1017.5 |
| 20260830124524 | 72 | 0 | 0.0 | 0.0 | 0.00 | 0.00 | 0.00 | 89 | 1017.5 |
| 20260830124003 | 72 | 0 | 0.0 | 0.0 | 0.00 | 0.00 | 0.00 | 89 | 1017.4 |
| 20260830123524 | 72 | 180 | 0.0 | 2.0 | 0.00 | 0.00 | 0.00 | 88 | 1017.5 |
| 20260830123024 | 72 | 180 | 0.0 | 2.0 | 0.00 | 0.00 | 0.00 | 88 | 1017.4 |
| 20260830122503 | 72 | 180 | 1.0 | 2.0 | 0.00 | 0.00 | 0.00 | 87 | 1017.4 |
| 20260830122003 | 72 | 180 | 1.0 | 2.0 | 0.00 | 0.00 | 0.00 | 87 | 1017.3 |
| 20260830121503 | 72 | 180 | 1.0 | 2.0 | 0.00 | 0.00 | 0.00 | 87 | 1017.3 |
| 20260830121003 | 72 | 180 | 0.0 | 2.0 | 0.00 | 0.00 | 0.00 | 87 | 1017.3 |
| 20260830120524 | 72 | 0 | 0.0 | 0.0 | 0.00 | 0.00 | 0.00 | 87 | 1017.2 |
| 20260830120003 | 72 | 0 | 0.0 | 0.0 | 0.00 | 0.00 | 0.00 | 87 | 1017.2 |
| 20260830115504 | 72 | 0 | 0.0 | 0.0 | 0.00 | 0.00 | 0.00 | 86 | 1017.2 |
| 20260830115025 | 72 | 0 | 0.0 | 0.0 | 0.00 | 0.00 | 0.00 | 86 | 1017.3 |
| 20260830114525 | 72 | 0 | 0.0 | 0.0 | 0.00 | 0.00 | 0.00 | 86 | 1017.3 |
| 20260830114004 | 73 | 0 | 0.0 | 0.0 | 0.00 | 0.00 | 0.00 | 86 | 1017.3 |
| 20260830113504 | 73 | 0 | 0.0 | 0.0 | 0.00 | 0.00 | 0.00 | 86 | 1017.2 |
| 20260830113004 | 73 | 0 | 0.0 | 0.0 | 0.00 | 0.00 | 0.00 | 86 | 1017.2 |
| 20260830112504 | 73 | 0 | 0.0 | 0.0 | 0.00 | 0.00 | 0.00 | 85 | 1017.2 |
| 20260830112004 | 73 | 0 | 0.0 | 0.0 | 0.00 | 0.00 | 0.00 | 85 | 1017.1 |
| 20260830111504 | 73 | 0 | 0.0 | 0.0 | 0.00 | 0.00 | 0.00 | 85 | 1017.0 |
| 20260830111004 | 73 | 180 | 0.0 | 1.0 | 0.00 | 0.00 | 0.00 | 85 | 1017.0 |
| 20260830110504 | 74 | 180 | 0.0 | 1.0 | 0.00 | 0.00 | 0.00 | 85 | 1017.0 |
| 20260830110004 | 74 | 180 | 0.0 | 1.0 | 0.00 | 0.00 | 0.00 | 84 | 1017.0 |
| 20260830105504 | 74 | 180 | 0.0 | 1.0 | 0.00 | 0.00 | 0.00 | 85 | 1016.9 |
| 20260830105004 | 74 | 0 | 0.0 | 0.0 | 0.00 | 0.00 | 0.00 | 84 | 1016.9 |
| 20260830104504 | 74 | 0 | 0.0 | 0.0 | 0.00 | 0.00 | 0.00 | 84 | 1016.8 |
| 20260830104004 | 74 | 0 | 0.0 | 0.0 | 0.00 | 0.00 | 0.00 | 84 | 1016.7 |
| 20260830103504 | 75 | 180 | 0.0 | 2.0 | 0.00 | 0.00 | 0.00 | 83 | 1016.7 |
| 20260830103004 | 75 | 180 | 0.0 | 2.0 | 0.00 | 0.00 | 0.00 | 84 | 1016.6 |
| 20260830102504 | 75 | 180 | 0.0 | 1.0 | 0.00 | 0.00 | 0.00 | 83 | 1016.6 |
| 20260830102025 | 75 | 180 | 0.0 | 1.0 | 0.00 | 0.00 | 0.00 | 83 | 1016.7 |
| 20260830101504 | 75 | 180 | 0.0 | 1.0 | 0.00 | 0.00 | 0.00 | 83 | 1016.7 |
| 20260830101004 | 76 | 180 | 0.0 | 1.0 | 0.00 | 0.00 | 0.00 | 83 | 1016.7 |
| 20260830100504 | 76 | 180 | 0.0 | 1.0 | 0.00 | 0.00 | 0.00 | 83 | 1016.7 |
| 20260830100004 | 76 | 180 | 0.0 | 2.0 | 0.00 | 0.00 | 0.00 | 83 | 1016.8 |
| 20260830095525 | 76 | 180 | 1.0 | 2.0 | 0.00 | 0.00 | 0.00 | 82 | 1016.7 |
| 20260830095004 | 76 | 180 | 1.0 | 2.0 | 0.00 | 0.00 | 0.00 | 82 | 1016.7 |
| 20260830094504 | 76 | 180 | 1.0 | 2.0 | 0.00 | 0.00 | 0.00 | 82 | 1016.7 |
| 20260830094004 | 76 | 180 | 1.0 | 2.0 | 0.00 | 0.00 | 0.00 | 82 | 1016.7 |
| 20260830093504 | 77 | 180 | 1.0 | 2.0 | 0.00 | 0.00 | 0.00 | 81 | 1016.7 |
| 20260830093004 | 77 | 180 | 1.0 | 2.0 | 0.00 | 0.00 | 0.00 | 81 | 1016.6 |
| 20260830092525 | 77 | 180 | 1.0 | 2.0 | 0.00 | 0.00 | 0.00 | 81 | 1016.6 |
| 20260830092004 | 77 | 180 | 1.0 | 4.0 | 0.00 | 0.00 | 0.00 | 80 | 1016.6 |
| 20260830091504 | 77 | 180 | 2.0 | 4.0 | 0.00 | 0.00 | 0.00 | 80 | 1016.6 |
| 20260830091004 | 77 | 180 | 2.0 | 4.0 | 0.00 | 0.00 | 0.00 | 80 | 1016.6 |
| 20260830090504 | 78 | 180 | 1.0 | 4.0 | 0.00 | 0.00 | 0.00 | 80 | 1016.7 |
| 20260830090004 | 78 | 180 | 0.0 | 2.0 | 0.00 | 0.00 | 0.00 | 80 | 1016.8 |
| 20260830085504 | 78 | 180 | 1.0 | 4.0 | 0.00 | 0.00 | 0.00 | 80 | 1016.7 |
| 20260830085004 | 78 | 180 | 2.0 | 4.0 | 0.00 | 0.00 | 0.00 | 80 | 1016.7 |
| 20260830084504 | 78 | 180 | 2.0 | 5.0 | 0.00 | 0.00 | 0.00 | 80 | 1016.7 |
| 20260830084003 | 78 | 180 | 2.0 | 6.0 | 0.00 | 0.00 | 0.00 | 80 | 1016.8 |
| 20260830083503 | 78 | 176 | 2.0 | 6.0 | 0.00 | 0.00 | 0.00 | 79 | 1016.8 |
| 20260830083004 | 78 | 171 | 2.0 | 6.0 | 0.00 | 0.00 | 0.00 | 79 | 1016.7 |
| 20260830082504 | 78 | 171 | 2.0 | 5.0 | 0.00 | 0.00 | 0.00 | 79 | 1016.8 |
| 20260830082004 | 78 | 171 | 2.0 | 5.0 | 0.00 | 0.00 | 0.00 | 79 | 1016.8 |
| 20260830081504 | 79 | 171 | 2.0 | 5.0 | 0.00 | 0.00 | 0.00 | 78 | 1016.8 |
| 20260830081025 | 79 | 173 | 2.0 | 6.0 | 0.00 | 0.00 | 0.00 | 78 | 1016.9 |
| 20260830080504 | 79 | 176 | 2.0 | 6.0 | 0.00 | 0.00 | 0.00 | 78 | 1016.9 |
| 20260830080004 | 79 | 178 | 2.0 | 6.0 | 0.00 | 0.00 | 0.00 | 78 | 1017.0 |
| 20260830075504 | 79 | 175 | 2.0 | 6.0 | 0.00 | 0.00 | 0.00 | 77 | 1017.1 |
| 20260830075004 | 79 | 168 | 2.0 | 6.0 | 0.00 | 0.00 | 0.00 | 77 | 1017.1 |
| 20260830074504 | 79 | 160 | 2.0 | 6.0 | 0.00 | 0.00 | 0.00 | 77 | 1017.1 |
| 20260830074004 | 80 | 159 | 4.0 | 7.0 | 0.00 | 0.00 | 0.00 | 77 | 1017.1 |
| 20260830073504 | 80 | 169 | 4.0 | 7.0 | 0.00 | 0.00 | 0.00 | 77 | 1017.1 |
| 20260830073004 | 80 | 171 | 4.0 | 6.0 | 0.00 | 0.00 | 0.00 | 77 | 1017.2 |
| 20260830072524 | 80 | 165 | 4.0 | 6.0 | 0.00 | 0.00 | 0.00 | 76 | 1017.2 |
| 20260830072003 | 80 | 165 | 4.0 | 6.0 | 0.00 | 0.00 | 0.00 | 76 | 1017.2 |
| 20260830071524 | 80 | 161 | 4.0 | 6.0 | 0.00 | 0.00 | 0.00 | 76 | 1017.2 |
| 20260830071003 | 80 | 158 | 4.0 | 6.0 | 0.00 | 0.00 | 0.00 | 76 | 1017.3 |
| 20260830070524 | 80 | 160 | 4.0 | 6.0 | 0.00 | 0.00 | 0.00 | 75 | 1017.3 |
| 20260830070003 | 81 | 167 | 4.0 | 6.0 | 0.00 | 0.00 | 0.00 | 75 | 1017.4 |
| 20260830065503 | 81 | 173 | 4.0 | 6.0 | 0.00 | 0.00 | 0.00 | 75 | 1017.4 |